[[{"header":{"parameterUnit":"m.s-1","parameterCategory":1,"la1":30.2991,"la2":30.254,"lo1":-89.0895,"lo2":-89.0444,"dy":0.0017,"dx":0.0017,"nx":28,"ny":28,"refTime":"2025-02-25T09:00:00:Z","depth":0,"parameterNumber":2,"parameterNumberName":"U-component_of_WINDS"},"data":[0,0,0,0,0,0,0,0,0,0,0,0,0,0,0,0,0,0,0,0,0,0,0,0,0,0,0,0,0,0,0,0,0,0,0,0,0,0,0,0,0,0,0,0,0,0,0,0,0,0,0,0,0,0,0,0,0,0,0.8668,0.8668,0,0.8664,0.8664,0.8664,0.8639,0.8638,0.8637,0.8637,0.8633,0.8634,0.8634,0,0,0,0,0,0,0,0,0,0,0,0,0,0.8654,0.8654,0.8668,0.8668,0.8668,0.8664,0.8664,0.8664,0.8639,0.8638,0.8637,0.8637,0.8633,0.8634,0.8634,0,0,0,0,0,0,0,0,0,0,0,0,0,0.8656,0.8655,0.8668,0.8655,0.8653,0.8664,0.8664,0.8664,0.8639,0.8638,0.8637,0.8636,0.8633,0.8634,0.8634,0.8658,0,0,0.8636,0.8637,0,0,0,0,0,0,0,0,0.8656,0.8657,0.8657,0.8656,0.8654,0.8651,0.8658,0.8662,0.8639,0.8644,0.8637,0.8636,0.864,0.864,0.8641,0.8657,0.8657,0.8637,0.8637,0.8637,0.8637,0,0,0,0,0,0,0,0.8656,0.8657,0.8666,0.8657,0.8655,0.8649,0.8649,0.8659,0.8647,0.8644,0.8642,0.8642,0.8639,0.8641,0.8641,0.8657,0.8637,0.8637,0.8638,0.8638,0.8694,0.8695,0,0,0,0,0,0,0.8658,0.8657,0.8667,0.8666,0.8653,0.865,0.865,0.8653,0.8647,0.8645,0.8643,0.8641,0.864,0.864,0.8641,0.8669,0.8637,0.8638,0.8638,0.8693,0.8694,0.8695,0,0,0,0,0,0,0.8657,0.8659,0.8667,0.8661,0.8662,0.8652,0.8656,0.8653,0.8655,0.8646,0.8644,0.8646,0.8639,0.864,0.8654,0.8668,0.8638,0.8639,0.8692,0.8693,0.8695,0.8724,0,0,0,0,0,0,0.8657,0.8659,0.8667,0.8661,0.8662,0.868,0.8656,0.8654,0.8656,0.8654,0.8649,0.8648,0.8638,0.8653,0.8655,0.8669,0.864,0.869,0.8692,0.8694,0.8722,0.8727,0.8731,0,0,0,0,0,0.8657,0.8675,0.8668,0.8669,0.8672,0.868,0.8681,0.867,0.8658,0.8666,0.8661,0.8648,0.8666,0.8655,0.8656,0.8671,0.8689,0.8692,0.8694,0.872,0.8726,0.873,0,0,0,0,0,0,0.8682,0.8674,0.8666,0.8683,0.8683,0.8676,0.8686,0.8676,0.8679,0.8676,0.8663,0.8662,0.8679,0.8676,0.8663,0.8694,0.8676,0.8679,0.8695,0.87,0.8704,0.8705,0.864,0,0,0,0,0,0.869,0.8697,0.869,0.8706,0.8706,0.8696,0.8699,0.8691,0.869,0.869,0.8686,0.8686,0.8692,0.8696,0.8701,0.8722,0.8721,0.8732,0.8737,0.874,0.8743,0.8755,0.8761,0.8703,0.8703,0.8703,0,0,0.8706,0.8702,0.8707,0.8711,0.8709,0.8718,0.8696,0.8706,0.8712,0.8691,0.8705,0.8702,0.8701,0.8719,0.8727,0.8717,0.8759,0.8743,0.8746,0.8747,0.8758,0.8764,0.8769,0.8705,0.8704,0.8704,0,0,0.8739,0.8737,0.875,0.875,0.8749,0.8742,0.8746,0.8741,0.8739,0.8752,0.8738,0.8745,0.8755,0.8755,0.8757,0.8792,0.8781,0.8794,0.8817,0.8829,0.8834,0.8838,0.8851,0.8856,0.8797,0.8797,0.8797,0,0.8759,0.877,0.8759,0.8769,0.8772,0.8754,0.8769,0.8769,0.8769,0.8771,0.8761,0.8775,0.8773,0.8791,0.88,0.8802,0.8806,0.8795,0.8834,0.8838,0.8842,0.8854,0.8859,0.8799,0.8799,0.8799,0.8798,0,0.8795,0.8804,0.8815,0.8816,0.882,0.8832,0.8823,0.8828,0.882,0.8816,0.883,0.8828,0.8832,0.8836,0.8828,0.8854,0.8849,0.8836,0.8818,0.8849,0.8861,0.8866,0.8801,0.8801,0.88,0.88,0,0,0.8843,0.8839,0.8844,0.8845,0.8843,0.885,0.8862,0.8867,0.8872,0.8873,0.8884,0.8894,0.8883,0.8885,0.8877,0.8888,0.8917,0.8874,0.8874,0.8883,0.8947,0.8957,0.8963,0.891,0.8911,0.8911,0.8948,0,0.8876,0.8896,0.8887,0.8909,0.8917,0.8901,0.8912,0.8913,0.8909,0.8916,0.8912,0.892,0.8904,0.8906,0.8916,0.8912,0.893,0.8909,0.892,0.8921,0.8921,0.8969,0.8978,0.9012,0.8952,0.8953,0.8953,0,0.8916,0.892,0.8943,0.8941,0.8944,0.8954,0.8958,0.8965,0.8966,0.8962,0.8966,0.8956,0.8968,0.895,0.8968,0.8954,0.8958,0.8957,0.8958,0.8959,0.8939,0.8971,0.9023,0.9028,0.896,0.896,0.8959,0,0.895,0.8961,0.8976,0.8977,0.8975,0.8983,0.8982,0.8982,0.8986,0.8991,0.8993,0.8999,0.9002,0.9007,0.9,0.8987,0.9019,0.9,0.9017,0.9018,0.9025,0.9024,0.9078,0.9027,0.9027,0.9027,0.9027,0,0.8987,0.9002,0.8991,0.9001,0.9017,0.9007,0.9024,0.9022,0.9022,0.9031,0.9018,0.9028,0.9017,0.9025,0.9019,0.9036,0.9037,0.9035,0.9034,0.9037,0.9037,0.9039,0.9037,0.9028,0.9028,0.9028,0.9027,0,0.9028,0.9021,0.9037,0.9034,0.9034,0.9046,0.9044,0.9053,0.9049,0.9062,0.9064,0.9058,0.9067,0.906,0.9069,0.9065,0.9087,0.9082,0.9087,0.9086,0.9104,0.9102,0.9161,0.9169,0.9112,0.9113,0.9113,0,0.9052,0.9063,0.9062,0.9068,0.9068,0.9077,0.9081,0.9072,0.9077,0.908,0.9089,0.9098,0.9104,0.912,0.9116,0.9124,0.9119,0.9139,0.912,0.9123,0.912,0.912,0.9121,0.9143,0.9144,0.9144,0.9145,0,0.9096,0.9093,0.91,0.9106,0.9112,0.9116,0.912,0.9125,0.9116,0.9123,0.9132,0.9137,0.9147,0.9156,0.9163,0.9163,0.9153,0.9151,0.9155,0.9159,0.9162,0.9161,0.9098,0.9149,0.9149,0.9149,0.9148,0.9148,0.913,0.914,0.9141,0.9149,0.9151,0.9155,0.9164,0.9162,0.9169,0.9177,0.9171,0.9183,0.9185,0.9193,0.9194,0.9204,0.9196,0.9202,0.9204,0.9206,0.9208,0.916,0.9205,0.9205,0.9205,0.9205,0.9204,0,0.9174,0.9175,0.9183,0.9188,0.9195,0.9186,0.9189,0.9196,0.9207,0.9209,0.9216,0.9228,0.9237,0.9235,0.9243,0.9252,0.9247,0.9254,0.9254,0.9254,0.9215,0.9211,0.9258,0.9258,0.9258,0.9258,0.9258,0.9258,0.9198,0.9215,0.9212,0.9229,0.923,0.9241,0.9244,0.9248,0.9251,0.9265,0.9272,0.9271,0.9272,0.9281,0.9289,0.9288,0.9292,0.9301,0.9298,0.9262,0.9257,0.9252,0.9247,0.9302,0.9302,0.9337,0.9337,0.9337]},{"header":{"parameterUnit":"m.s-1","parameterCategory":1,"la1":30.2991,"la2":30.254,"lo1":-89.0895,"lo2":-89.0444,"dy":0.0017,"dx":0.0017,"nx":28,"ny":28,"refTime":"2025-02-25T09:00:00:Z","depth":0,"parameterNumber":3,"parameterNumberName":"V-component_of_WINDS"},"data":[0,0,0,0,0,0,0,0,0,0,0,0,0,0,0,0,0,0,0,0,0,0,0,0,0,0,0,0,0,0,0,0,0,0,0,0,0,0,0,0,0,0,0,0,0,0,0,0,0,0,0,0,0,0,0,0,0,0,-1.9124,-1.9125,0,-1.9203,-1.9204,-1.9204,-1.9213,-1.9212,-1.9212,-1.9211,-1.9289,-1.9292,-1.9295,0,0,0,0,0,0,0,0,0,0,0,0,0,-1.898,-1.8983,-1.9124,-1.9125,-1.9126,-1.9202,-1.9204,-1.9205,-1.9213,-1.9212,-1.9211,-1.921,-1.9288,-1.9292,-1.9295,0,0,0,0,0,0,0,0,0,0,0,0,0,-1.9049,-1.8983,-1.9124,-1.9139,-1.9142,-1.9202,-1.9204,-1.9205,-1.9214,-1.9212,-1.9211,-1.921,-1.9287,-1.9291,-1.9295,-1.9345,0,0,-1.9308,-1.931,0,0,0,0,0,0,0,0,-1.9045,-1.9054,-1.9136,-1.9138,-1.9141,-1.9197,-1.9182,-1.9252,-1.9214,-1.9186,-1.9211,-1.9209,-1.9259,-1.9266,-1.9283,-1.9349,-1.9352,-1.9309,-1.9311,-1.9313,-1.9314,0,0,0,0,0,0,0,-1.904,-1.9051,-1.9155,-1.9137,-1.914,-1.9142,-1.9151,-1.9195,-1.9228,-1.9188,-1.9189,-1.9199,-1.926,-1.9279,-1.9285,-1.9353,-1.9309,-1.9312,-1.9315,-1.9317,-1.9466,-1.9467,0,0,0,0,0,0,-1.9033,-1.9047,-1.9152,-1.9157,-1.9089,-1.9146,-1.9155,-1.918,-1.9228,-1.9234,-1.92,-1.9199,-1.9272,-1.928,-1.9288,-1.9351,-1.9313,-1.9317,-1.9319,-1.9464,-1.9466,-1.9468,0,0,0,0,0,0,-1.903,-1.9042,-1.9149,-1.9102,-1.9116,-1.915,-1.9177,-1.9182,-1.9201,-1.9236,-1.9242,-1.9212,-1.9272,-1.9282,-1.9331,-1.9353,-1.9319,-1.9323,-1.9463,-1.9465,-1.9467,-1.9476,0,0,0,0,0,0,-1.9025,-1.9041,-1.906,-1.9103,-1.9119,-1.9192,-1.9179,-1.9185,-1.9208,-1.9208,-1.925,-1.9256,-1.9271,-1.9325,-1.9336,-1.9359,-1.9326,-1.9461,-1.9464,-1.9466,-1.9474,-1.9478,-1.9482,0,0,0,0,0,-1.902,-1.9058,-1.9061,-1.9074,-1.9144,-1.9193,-1.9202,-1.922,-1.921,-1.923,-1.9253,-1.9254,-1.9349,-1.933,-1.9342,-1.9367,-1.946,-1.9463,-1.9466,-1.9472,-1.9477,-1.9482,0,0,0,0,0,0,-1.9016,-1.9064,-1.9068,-1.9121,-1.9153,-1.9195,-1.922,-1.9225,-1.926,-1.9258,-1.9278,-1.9288,-1.9337,-1.9357,-1.9334,-1.9418,-1.9403,-1.9409,-1.9404,-1.9409,-1.9413,-1.9408,-1.9329,0,0,0,0,0,-1.9022,-1.9059,-1.9098,-1.9141,-1.9158,-1.9186,-1.9208,-1.922,-1.9253,-1.9267,-1.9293,-1.9326,-1.9363,-1.9387,-1.9423,-1.9477,-1.9487,-1.95,-1.9504,-1.9507,-1.9512,-1.9543,-1.955,-1.9478,-1.9478,-1.9478,0,0,-1.9033,-1.9064,-1.9086,-1.9141,-1.9168,-1.9206,-1.9197,-1.9237,-1.9265,-1.9272,-1.9322,-1.9343,-1.938,-1.9432,-1.9457,-1.945,-1.9534,-1.9511,-1.9513,-1.9516,-1.9547,-1.9554,-1.956,-1.9481,-1.948,-1.948,0,0,-1.9074,-1.91,-1.914,-1.9167,-1.9208,-1.9227,-1.9236,-1.9278,-1.9292,-1.9342,-1.9349,-1.9383,-1.9446,-1.9473,-1.9495,-1.9548,-1.9551,-1.9559,-1.958,-1.9611,-1.9616,-1.9622,-1.9642,-1.9649,-1.9564,-1.9564,-1.9564,0,-1.9082,-1.914,-1.916,-1.92,-1.9225,-1.9235,-1.9276,-1.9301,-1.935,-1.9367,-1.9359,-1.9441,-1.9466,-1.9526,-1.954,-1.9557,-1.9569,-1.9555,-1.9614,-1.962,-1.9625,-1.9644,-1.9652,-1.9564,-1.9564,-1.9564,-1.9564,0,-1.915,-1.919,-1.9217,-1.9267,-1.9295,-1.9335,-1.9361,-1.9387,-1.9396,-1.9416,-1.9468,-1.9499,-1.9543,-1.9558,-1.9566,-1.962,-1.9615,-1.961,-1.9596,-1.9632,-1.9651,-1.9659,-1.9566,-1.9565,-1.9565,-1.9565,0,0,-1.9189,-1.9251,-1.9261,-1.9284,-1.9331,-1.9362,-1.9403,-1.9447,-1.947,-1.9504,-1.954,-1.9594,-1.9591,-1.9616,-1.9628,-1.9655,-1.9697,-1.9647,-1.9649,-1.9657,-1.976,-1.9764,-1.9772,-1.9699,-1.9701,-1.9702,-1.9757,0,-1.9236,-1.9311,-1.9331,-1.9394,-1.9433,-1.9443,-1.9479,-1.9512,-1.9532,-1.9567,-1.9588,-1.9627,-1.962,-1.9635,-1.9662,-1.9686,-1.9718,-1.9682,-1.9733,-1.9735,-1.9725,-1.9782,-1.9786,-1.9836,-1.9764,-1.9766,-1.9767,0,-1.9301,-1.9339,-1.9406,-1.945,-1.9467,-1.9499,-1.9542,-1.9575,-1.9612,-1.9625,-1.9654,-1.9664,-1.9708,-1.9691,-1.9752,-1.9727,-1.9749,-1.9764,-1.9767,-1.9773,-1.9754,-1.9791,-1.9853,-1.9861,-1.9778,-1.9777,-1.9776,0,-1.9325,-1.9392,-1.9443,-1.9462,-1.9513,-1.9536,-1.9558,-1.9595,-1.9621,-1.9658,-1.9675,-1.9716,-1.9739,-1.9771,-1.9792,-1.9777,-1.9852,-1.9836,-1.9865,-1.9864,-1.9881,-1.988,-1.9948,-1.9893,-1.9892,-1.9892,-1.9892,0,-1.9376,-1.9418,-1.9454,-1.9485,-1.9533,-1.9555,-1.9601,-1.9623,-1.9656,-1.9691,-1.9702,-1.9735,-1.976,-1.9797,-1.9813,-1.9863,-1.9872,-1.9884,-1.9889,-1.9884,-1.9883,-1.99,-1.9897,-1.9894,-1.9894,-1.9893,-1.9893,0,-1.9411,-1.9437,-1.9493,-1.9538,-1.955,-1.9583,-1.9621,-1.9652,-1.9673,-1.9718,-1.973,-1.9762,-1.9806,-1.983,-1.9885,-1.9896,-1.9952,-1.9953,-1.994,-1.9942,-1.9969,-1.9967,-2.0052,-2.0065,-1.9999,-2.0,-2.0,0,-1.9443,-1.9475,-1.9524,-1.955,-1.9573,-1.9613,-1.964,-1.9663,-1.9691,-1.9737,-1.9763,-1.9807,-1.9845,-1.9914,-1.9943,-1.9985,-1.9988,-2.0015,-1.9995,-1.999,-1.9991,-1.9989,-1.9994,-2.0019,-2.002,-2.002,-2.0021,0,-1.9496,-1.9508,-1.9547,-1.9592,-1.9624,-1.966,-1.9695,-1.9715,-1.9744,-1.9775,-1.9821,-1.985,-1.9907,-1.9952,-1.9997,-2.0019,-2.0026,-2.0027,-2.0036,-2.0033,-2.0024,-2.0031,-1.9951,-2.0025,-2.0025,-2.0024,-2.0024,-2.0024,-1.9532,-1.9562,-1.9602,-1.9646,-1.9675,-1.9709,-1.974,-1.9766,-1.9805,-1.9854,-1.9865,-1.9914,-1.9952,-2.0013,-2.0037,-2.0076,-2.0071,-2.0083,-2.0087,-2.009,-2.0092,-2.0017,-2.0084,-2.0084,-2.0084,-2.0084,-2.0084,0,-1.9588,-1.9614,-1.9655,-1.9705,-1.974,-1.9743,-1.9783,-1.9812,-1.9855,-1.989,-1.9927,-1.9981,-2.0025,-2.0057,-2.0102,-2.0127,-2.0131,-2.0138,-2.0137,-2.0143,-2.0093,-2.0082,-2.0135,-2.0135,-2.0135,-2.0135,-2.0134,-2.0134,-1.9621,-1.9673,-1.969,-1.9757,-1.9784,-1.9833,-1.9855,-1.9887,-1.9915,-1.9975,-2.0012,-2.0034,-2.0068,-2.0116,-2.0157,-2.0166,-2.0182,-2.0189,-2.0198,-2.0151,-2.0146,-2.0141,-2.013,-2.0192,-2.0193,-2.0245,-2.0245,-2.0246]}]]